Location: Camoruquito
(9.9001°N, 67.3564°W)
Time: 12:50:33
(UTC+00:00)

SL-08 ROCKET BODY - Pass Details

Date: 14 April 2024
Orbit: 896 x 962 km, 82.9° (Epoch: 28 May)

Event Time Altitude Azimuth Distance (km) Brightness Sun altitude
Exits shadow 08:40:02 25° 186° (S) 1,738 5.6 -24.7°
Maximum altitude 08:43:37 84° 273° (W) 907 4.2 -23.9°
Drops below altitude 10° 08:49:30 10° 2° (N) 2,584 6.9 -22.5°
Sets 08:51:58 0° 3° (N) 3,533 7.7 -21.9°
